Darstellungsparameter: Aktuell verwendete Einstellungen:
Skalierung der Graphiken ... ?
xyx+y,   Skalierungsfaktor:      Skalierung: Modus: x, Faktor: 1
Darstellungszeitraum ... ?
Vom - - bis: - -   Zeitraum: 24.01.2021 - 24.01.2021
Min/Max/Avg-Anzeige ... ?
Zeige MMA aktuell
Zeige MMA Monat
Zeige MMA alles
Zeige --A aktuell
Zeige --A Monat
Zeige --A alles
Keine MMA-Anzeige
MMA:
Average (ber die Originaldaten)
MMA-Basis: 24.01.2021 - 24.01.2021
Quicknavigation für Darstellung... ?
Tage:      1T, 2T, 3T, 5T -1T -2T -3T -5T +1T +2T +3T +5T
Wochen: 1W, 2W, 3W -1W -2W -3W +1W +2W +3W
Monate: 1M, 3M, 6M -1M -3M -6M +1M +3M +6M
Jahre:    1J, 3J, 5J, 10J -1J -3J -5J -10J +1J +3J +5J +10J
Nutze für die Darstellung ... ?
Originaldaten oder Mittelwerte auf ...
Stundenbasis Tagesbasis Wochenbasis
Monatsbasis Jahresbasis      Datenbasis: Original-Daten
Darstellen als:
Statistik (Auto) Statistik J:M      Darstellung:

Der gewünschte Datumsbereich war nicht gültig/verfügbar und wurde korrigiert....
Das angegebene Enddatum (26.04.2022 23:59:59) liegt in der Zukunft.
Das angegebene Startdatum (24.04.2022 00:00:00) liegt in der Zukunft.


Zur Graphik,    zurück zur Übersicht aller Sensoren.
 
Tabellarische Datenbersicht: ?
 
Sensor: Nr:Datum:Temp:Abs-Feuchte:Windchill:Wind:
Aussen-T/F 1 24-01-2021 01:00:00 3.6 C 5.94 g/m*3 3.6 C 0 km/h
2 24-01-2021 01:05:00 3.5 C 5.9 g/m*3 3.5 C 0 km/h
3 24-01-2021 01:10:00 3.5 C 5.84 g/m*3 3.5 C 0 km/h
4 24-01-2021 01:15:00 3.5 C 5.9 g/m*3 3.5 C 0 km/h
5 24-01-2021 01:20:00 3.4 C 5.8 g/m*3 3.4 C 0 km/h
6 24-01-2021 01:25:00 3.4 C 5.86 g/m*3 3.4 C 0 km/h
7 24-01-2021 01:30:00 3.4 C 5.86 g/m*3 3.4 C 0 km/h
8 24-01-2021 01:35:00 3.4 C 5.86 g/m*3 3.4 C 0 km/h
9 24-01-2021 01:40:00 3.4 C 5.86 g/m*3 3.4 C 1.6 km/h
10 24-01-2021 01:45:00 3.3 C 5.82 g/m*3 3.3 C 1.6 km/h
11 24-01-2021 01:50:00 3.2 C 5.72 g/m*3 0.99 C 8.1 km/h
12 24-01-2021 01:55:00 3.1 C 5.69 g/m*3 3.1 C 4.8 km/h
13 24-01-2021 02:00:00 2.8 C 5.57 g/m*3 1.05 C 6.4 km/h
14 24-01-2021 02:05:00 2.7 C 5.54 g/m*3 2.7 C 4.8 km/h
15 24-01-2021 02:10:00 2.6 C 5.5 g/m*3 2.6 C 0 km/h
16 24-01-2021 02:15:00 2.4 C 5.42 g/m*3 2.4 C 1.6 km/h
17 24-01-2021 02:20:00 2.4 C 5.42 g/m*3 2.4 C 0 km/h
18 24-01-2021 02:25:00 2.3 C 5.39 g/m*3 2.3 C 4.8 km/h
19 24-01-2021 02:30:00 2.2 C 5.35 g/m*3 2.2 C 4.8 km/h
20 24-01-2021 02:35:00 2.1 C 5.31 g/m*3 0.24 C 6.4 km/h
21 24-01-2021 02:40:00 2 C 5.28 g/m*3 2 C 1.6 km/h
22 24-01-2021 02:45:00 1.9 C 5.24 g/m*3 0.01 C 6.4 km/h
23 24-01-2021 02:50:00 2 C 5.28 g/m*3 2 C 3.2 km/h
24 24-01-2021 02:55:00 2 C 5.33 g/m*3 0.13 C 6.4 km/h
25 24-01-2021 03:00:00 2.1 C 5.37 g/m*3 0.24 C 6.4 km/h
Sensor: Nr:Datum:Temp:Abs-Feuchte:Windchill:Wind:
Aussen-T/F 26 24-01-2021 03:05:00 2.1 C 5.37 g/m*3 0.24 C 6.4 km/h
27 24-01-2021 03:10:00 2.2 C 5.41 g/m*3 -0.61 C 9.7 km/h
28 24-01-2021 03:15:00 2.2 C 5.41 g/m*3 0.36 C 6.4 km/h
29 24-01-2021 03:20:00 2.2 C 5.41 g/m*3 -0.18 C 8.1 km/h
30 24-01-2021 03:25:00 2.2 C 5.41 g/m*3 -0.61 C 9.7 km/h
31 24-01-2021 03:30:00 2.2 C 5.41 g/m*3 0.36 C 6.4 km/h
32 24-01-2021 03:35:00 2.2 C 5.41 g/m*3 -0.18 C 8.1 km/h
33 24-01-2021 03:40:00 2.2 C 5.41 g/m*3 2.2 C 1.6 km/h
34 24-01-2021 03:45:00 2.2 C 5.41 g/m*3 -0.99 C 11.3 km/h
35 24-01-2021 03:50:00 2.1 C 5.31 g/m*3 -1.74 C 14.5 km/h
36 24-01-2021 03:55:00 2.1 C 5.31 g/m*3 -1.74 C 14.5 km/h
37 24-01-2021 04:00:00 2.1 C 5.31 g/m*3 -0.3 C 8.1 km/h
38 24-01-2021 04:05:00 2.1 C 5.31 g/m*3 -1.74 C 14.5 km/h
39 24-01-2021 04:10:00 2.1 C 5.31 g/m*3 -1.44 C 12.9 km/h
40 24-01-2021 04:15:00 2.1 C 5.26 g/m*3 -0.73 C 9.7 km/h
41 24-01-2021 04:20:00 2 C 5.22 g/m*3 -2.14 C 16.1 km/h
42 24-01-2021 04:25:00 2 C 5.22 g/m*3 -1.86 C 14.5 km/h
43 24-01-2021 04:30:00 2 C 5.22 g/m*3 -1.23 C 11.3 km/h
44 24-01-2021 04:35:00 2.1 C 5.2 g/m*3 -2.01 C 16.1 km/h
45 24-01-2021 04:40:00 2.1 C 5.2 g/m*3 -2.26 C 17.7 km/h
46 24-01-2021 04:45:00 2.1 C 5.15 g/m*3 -2.26 C 17.7 km/h
47 24-01-2021 04:50:00 2.2 C 5.18 g/m*3 -0.99 C 11.3 km/h
48 24-01-2021 04:55:00 2.2 C 5.18 g/m*3 -1.32 C 12.9 km/h
49 24-01-2021 05:00:00 2.2 C 5.18 g/m*3 -0.61 C 9.7 km/h
50 24-01-2021 05:05:00 2.2 C 5.18 g/m*3 -1.32 C 12.9 km/h
Sensor: Nr:Datum:Temp:Abs-Feuchte:Windchill:Wind:
Aussen-T/F 51 24-01-2021 05:10:00 2.2 C 5.18 g/m*3 -1.62 C 14.5 km/h
52 24-01-2021 05:15:00 2.2 C 5.18 g/m*3 -1.62 C 14.5 km/h
53 24-01-2021 05:20:00 2.2 C 5.18 g/m*3 -1.32 C 12.9 km/h
54 24-01-2021 05:25:00 2.2 C 5.18 g/m*3 -0.99 C 11.3 km/h
55 24-01-2021 05:30:00 2.2 C 5.18 g/m*3 -0.61 C 9.7 km/h
56 24-01-2021 05:35:00 2.2 C 5.18 g/m*3 -1.32 C 12.9 km/h
57 24-01-2021 05:40:00 2.2 C 5.18 g/m*3 -1.62 C 14.5 km/h
58 24-01-2021 05:45:00 2.2 C 5.18 g/m*3 -1.62 C 14.5 km/h
59 24-01-2021 05:50:00 2.3 C 5.22 g/m*3 -1.2 C 12.9 km/h
60 24-01-2021 05:55:00 2.3 C 5.22 g/m*3 -1.49 C 14.5 km/h
61 24-01-2021 06:00:00 2.3 C 5.22 g/m*3 -1.49 C 14.5 km/h
62 24-01-2021 06:05:00 2.3 C 5.22 g/m*3 -2.24 C 19.3 km/h
63 24-01-2021 06:10:00 2.3 C 5.16 g/m*3 -2.24 C 19.3 km/h
64 24-01-2021 06:15:00 2.3 C 5.16 g/m*3 -1.76 C 16.1 km/h
65 24-01-2021 06:20:00 2.3 C 5.16 g/m*3 -1.76 C 16.1 km/h
66 24-01-2021 06:25:00 2.3 C 5.22 g/m*3 -1.49 C 14.5 km/h
67 24-01-2021 06:30:00 2.3 C 5.22 g/m*3 -1.49 C 14.5 km/h
68 24-01-2021 06:35:00 2.3 C 5.22 g/m*3 -1.49 C 14.5 km/h
69 24-01-2021 06:40:00 2.3 C 5.22 g/m*3 -2.24 C 19.3 km/h
70 24-01-2021 06:45:00 2.3 C 5.22 g/m*3 -1.2 C 12.9 km/h
71 24-01-2021 06:50:00 2.3 C 5.22 g/m*3 -0.87 C 11.3 km/h
72 24-01-2021 06:55:00 2.2 C 5.18 g/m*3 -1.62 C 14.5 km/h
73 24-01-2021 07:00:00 2.2 C 5.18 g/m*3 -0.99 C 11.3 km/h
74 24-01-2021 07:05:00 2.2 C 5.18 g/m*3 -0.99 C 11.3 km/h
75 24-01-2021 07:10:00 2.2 C 5.18 g/m*3 -0.61 C 9.7 km/h
Sensor: Nr:Datum:Temp:Abs-Feuchte:Windchill:Wind:
Aussen-T/F 76 24-01-2021 07:15:00 2.1 C 5.15 g/m*3 -1.44 C 12.9 km/h
77 24-01-2021 07:20:00 2.1 C 5.15 g/m*3 -1.74 C 14.5 km/h
78 24-01-2021 07:25:00 2.1 C 5.2 g/m*3 -1.74 C 14.5 km/h
79 24-01-2021 07:30:00 2 C 5.17 g/m*3 -1.56 C 12.9 km/h
80 24-01-2021 07:35:00 2 C 5.17 g/m*3 -0.85 C 9.7 km/h
81 24-01-2021 07:40:00 2 C 5.17 g/m*3 -0.85 C 9.7 km/h
82 24-01-2021 07:45:00 2 C 5.17 g/m*3 -1.56 C 12.9 km/h
83 24-01-2021 07:50:00 2 C 5.17 g/m*3 -1.86 C 14.5 km/h
84 24-01-2021 07:55:00 2 C 5.17 g/m*3 -0.85 C 9.7 km/h
85 24-01-2021 08:00:00 2 C 5.17 g/m*3 -1.23 C 11.3 km/h
86 24-01-2021 08:05:00 2 C 5.17 g/m*3 -0.42 C 8.1 km/h
87 24-01-2021 08:10:00 1.9 C 5.19 g/m*3 -1.35 C 11.3 km/h
88 24-01-2021 08:15:00 1.9 C 5.19 g/m*3 -1.35 C 11.3 km/h
89 24-01-2021 08:20:00 1.9 C 5.19 g/m*3 -1.35 C 11.3 km/h
90 24-01-2021 08:25:00 1.8 C 5.15 g/m*3 -1.47 C 11.3 km/h
91 24-01-2021 08:30:00 1.8 C 5.15 g/m*3 -1.09 C 9.7 km/h
92 24-01-2021 08:35:00 1.8 C 5.15 g/m*3 -1.09 C 9.7 km/h
93 24-01-2021 08:40:00 1.8 C 5.15 g/m*3 -1.47 C 11.3 km/h
94 24-01-2021 08:45:00 1.8 C 5.15 g/m*3 -0.65 C 8.1 km/h
95 24-01-2021 08:50:00 1.7 C 5.12 g/m*3 -1.59 C 11.3 km/h
96 24-01-2021 08:55:00 1.7 C 5.12 g/m*3 -0.77 C 8.1 km/h
97 24-01-2021 09:00:00 1.7 C 5.12 g/m*3 -1.21 C 9.7 km/h
98 24-01-2021 09:05:00 1.7 C 5.17 g/m*3 -0.22 C 6.4 km/h
99 24-01-2021 09:10:00 1.7 C 5.17 g/m*3 -1.21 C 9.7 km/h
100 24-01-2021 09:15:00 1.8 C 5.21 g/m*3 -1.09 C 9.7 km/h
Sensor: Nr:Datum:Temp:Abs-Feuchte:Windchill:Wind:
Aussen-T/F 101 24-01-2021 09:20:00 1.8 C 5.21 g/m*3 -1.47 C 11.3 km/h
102 24-01-2021 09:25:00 1.8 C 5.21 g/m*3 -1.47 C 11.3 km/h
103 24-01-2021 09:30:00 1.8 C 5.21 g/m*3 -0.65 C 8.1 km/h
104 24-01-2021 09:35:00 1.8 C 5.21 g/m*3 -0.65 C 8.1 km/h
105 24-01-2021 09:40:00 1.9 C 5.24 g/m*3 -0.97 C 9.7 km/h
106 24-01-2021 09:45:00 1.9 C 5.24 g/m*3 -0.97 C 9.7 km/h
107 24-01-2021 09:50:00 2 C 5.28 g/m*3 -1.56 C 12.9 km/h
108 24-01-2021 09:55:00 2.1 C 5.31 g/m*3 -1.11 C 11.3 km/h
109 24-01-2021 10:00:00 2.1 C 5.31 g/m*3 0.24 C 6.4 km/h
110 24-01-2021 10:05:00 2.1 C 5.31 g/m*3 -0.73 C 9.7 km/h
111 24-01-2021 10:10:00 2.2 C 5.35 g/m*3 -0.99 C 11.3 km/h

Legende:
   Min
   Max


Maximal/Minimal-Werte vom 24.01.2021 - 24.01.2021

Sensor Min Max Avg
Temp
(Aussen-T/F)
1.7 °C
24-01-2021  08:50:00
3.6 °C
24-01-2021  01:00:00
2.24 °C
Abs-Feuchte
(Aussen-T/F)
5.12 g/m*3
24-01-2021  08:50:00
5.94 g/m*3
24-01-2021  01:00:00
5.26 g/m*3
Windchill
(Aussen-T/F)
-2.26 C
24-01-2021  04:40:00
3.6 C
24-01-2021  01:00:00
-0.36 C

Die Daten stammen von einer Davis Vantage Pro 2 Wetter-Station und werden unter Linux mit der Software wview2wettercgi und aufbereitet. Alle Angaben erfolgen ohne Gewähr für ihre Vollständigkeit oder Richtigkeit.
Kontakt: Rainer Krienke krienke@uni-koblenz.de . Meine Webseiten an der Uni Koblenz oder privat.
Version: $Revision: 0.78 $